Location: Krasnoyarskiy Pitomnik
(51.1333°N, 71.6167°E)
Time: 08:00:12
(UTC+00:00)

Cosmos 1697 Rocket - Pass Details

Date: 22 October 2021
Orbit: 834 x 842 km, 71.0° (Epoch: 06 December)

Event Time Altitude Azimuth Distance (km) Brightness Sun altitude
Rises 12:35:00 0° 212° (SSW) 3,386 6.6 -5.2°
Reaches altitude 10° 12:37:27 10° 213° (SSW) 2,455 5.8 -5.5°
Maximum altitude 12:43:06 80° 301° (WNW) 861 2.9 -6.4°
Drops below altitude 10° 12:48:46 10° 29° (NNE) 2,466 4.8 -7.3°
Sets 12:51:14 0° 30° (NNE) 3,403 5.5 -7.7°
